Погода в Средних Татмышах

Россия / Чувашская Республика     55°26′57″N   47°13′37″E
темп.,
°C
ветер,
м/с
пор.,
м/с
влажн.,
%
обл.,
%
осадки,
мм/ч
давл.,
гПа
погр.,
м
14 мая, пт
пт1400:00+15ююв41090100 2.7 1020187
03:00+14юв4988100 3.1 1020146
06:00+15юв378580 0.1 1020187
09:00+20ю3570100 0.0 1020490
12:00+24ююз3558100 0.0 10201232
15:00+25ююз46525 0.0 10191695
18:00+23зюз236912 0.0 101964
21:00+18юв127772 0.0 101911
15 мая, сб
сб1500:00+17ююв3483100 0.0 101845
03:00+17юв3678100 0.0 101881
06:00+17ююв4107589 0.1 1018239
09:00+24ю51353100 0.1 1017588
12:00+27ю61241100 0.0 10171349
15:00+27ююз6114142 0.0 10161571
18:00+23ю38615 0.0 1016156
21:00+18ю49670 0.0 1016124
16 мая, вс
вс1600:00+16ю34665 0.0 101552
03:00+15ю346743 0.0 101548
06:00+17ю3107093 0.0 1016247
09:00+22юз4757100 0.0 1015477
12:00+25юз5749100 0.0 10161153
15:00+26юз58495 0.0 10151651
18:00+23юз3667100 0.0 1014139
21:00+18зюз228396 0.1 101514
17 мая, пн
пн1700:00+16з3393100 1.1 101639
03:00+16ююз118898 1.4 101711
06:00+18ю118273 0.0 101779
09:00+23зюз11655 0.0 1017596
12:00+26юз2547100 0.0 10171590
15:00+28з354111 0.0 10161828
18:00+25зсз226372 0.0 101623
21:00+19в117630 0.0 101711
18 мая, вт
вт1800:00+18ююв227898 0.0 101711
03:00+17юв22768 0.0 101711
06:00+20юв226869 0.0 101780
09:00+25ююв4551100 0.0 1017391
12:00+28ююв463792 0.0 10161603
15:00+28юв4639100 0.0 1016722
18:00+24ююв4760100 0.0 1015114
21:00+19ююв356117 0.0 101655